,,,PA_Meas_PMT16A,,PR_Meas_QMR101_102,,RH_Meas_QMH101,,SR_Meas_QMS101,,TA_Meas_QMH101,,GenWind,,GenWind,
date,time,status,PA,status,PR,status,RH,status,SR,status,TA,status,DirAvg,status,SpdAvg,
2008-11-13, 00:00:04,VALID,1002.62,VALID,0,VALID,90.0589,VALID,0,VALID,25.2027,VALID,332,VALID,0.486719,
2008-11-13, 00:01:04,VALID,1002.63,VALID,0,VALID,89.9292,VALID,0,VALID,25.2611,VALID,339,VALID,0.498437,
2008-11-13, 00:02:04,VALID,1002.64,VALID,0,VALID,89.853,VALID,0,VALID,25.2416,VALID,344,VALID,0.825,
2008-11-13, 00:03:04,VALID,1002.65,VALID,0,VALID,89.8606,VALID,0,VALID,25.263,VALID,318,VALID,0.550391,
2008-11-13, 00:04:04,VALID,1002.67,VALID,0,VALID,89.769,VALID,0,VALID,25.2416,VALID,341,VALID,0.362109,
2008-11-13, 00:05:04,VALID,1002.67,VALID,0,VALID,89.7767,VALID,0,VALID,25.2202,VALID,328,VALID,0.532812,
2008-11-13, 00:06:04,VALID,1002.71,VALID,0,VALID,89.7461,VALID,0,VALID,25.2825,VALID,349,VALID,0.0796875,
2008-11-13, 00:07:04,VALID,1002.7,VALID,0,VALID,89.7461,VALID,0,VALID,25.2611,VALID,350,VALID,0.367969,
2008-11-13, 00:08:04,VALID,1002.7,VALID,0,VALID,89.7309,VALID,0,VALID,25.2806,VALID,351,VALID,0.130469,
2008-11-13, 00:09:04,VALID,1002.7,VALID,0,VALID,89.7156,VALID,0,VALID,25.2611,VALID,354,VALID,0.267578,
2008-11-13, 00:10:04,VALID,1002.69,VALID,0,VALID,89.7156,VALID,0,VALID,25.2825,VALID,311,VALID,0.0414063,
2008-11-13, 00:11:04,VALID,1002.69,VALID,0,VALID,89.7538,VALID,0,VALID,25.2825,VALID,311,VALID,0,
2008-11-13, 00:12:04,VALID,1002.7,VALID,0,VALID,89.7767,VALID,0,VALID,25.263,VALID,311,VALID,0,
2008-11-13, 00:13:04,VALID,1002.67,VALID,0,VALID,89.8148,VALID,0,VALID,25.2416,VALID,311,VALID,0,
2008-11-13, 00:14:04,VALID,1002.65,VALID,0,VALID,89.8301,VALID,0,VALID,25.2435,VALID,311,VALID,0.199609,
2008-11-13, 00:15:04,VALID,1002.65,VALID,0,VALID,89.8682,VALID,0,VALID,25.224,VALID,284,VALID,0.820703,
2008-11-13, 00:16:04,VALID,1002.66,VALID,0,VALID,89.7843,VALID,0,VALID,25.2221,VALID,284,VALID,0.630859,
2008-11-13, 00:17:04,VALID,1002.64,VALID,0,VALID,89.769,VALID,0,VALID,25.2416,VALID,278,VALID,0.474219,
2008-11-13, 00:18:04,VALID,1002.65,VALID,0,VALID,89.7004,VALID,0,VALID,25.2416,VALID,295,VALID,0.757031,
2008-11-13, 00:19:04,VALID,1002.67,VALID,0,VALID,89.6622,VALID,0,VALID,25.2825,VALID,284,VALID,0.442578,
2008-11-13, 00:20:04,VALID,1002.65,VALID,0,VALID,89.6241,VALID,0,VALID,25.3019,VALID,283,VALID,0.103906,
2008-11-13, 00:21:04,VALID,1002.67,VALID,0,VALID,89.5478,VALID,0,VALID,25.3019,VALID,283,VALID,0.182031,
2008-11-13, 00:22:04,VALID,1002.61,VALID,0,VALID,89.4868,VALID,0,VALID,25.263,VALID,345,VALID,0.775781,
2008-11-13, 00:23:04,VALID,1002.59,VALID,0,VALID,89.5478,VALID,0,VALID,25.2221,VALID,351,VALID,0.571484,
2008-11-13, 00:24:04,VALID,1002.55,VALID,0,VALID,89.708,VALID,0,VALID,25.1832,VALID,350,VALID,0.592969,
2008-11-13, 00:25:04,VALID,1002.5,VALID,0,VALID,89.8606,VALID,0,VALID,25.1267,VALID,351,VALID,0.763672,
2008-11-13, 00:26:04,VALID,1002.46,VALID,0,VALID,90.0513,VALID,0,VALID,25.0682,VALID,350,VALID,0.570313,
2008-11-13, 00:27:04,VALID,1002.41,VALID,0,VALID,90.3488,VALID,0,VALID,24.9904,VALID,354,VALID,0.754687,
2008-11-13, 00:28:04,VALID,1002.36,VALID,0,VALID,90.6082,VALID,0,VALID,24.9106,VALID,354,VALID,0.580469,
2008-11-13, 00:29:04,VALID,1002.36,VALID,0,VALID,90.86,VALID,0,VALID,24.8522,VALID,359,VALID,0.357422,
2008-11-13, 00:30:04,VALID,1002.32,VALID,0,VALID,91.0888,VALID,0,VALID,24.8151,VALID,340,VALID,0.466016,
2008-11-13, 00:31:04,VALID,1002.29,VALID,0,VALID,91.2796,VALID,0,VALID,24.7743,VALID,339,VALID,0.323047,
2008-11-13, 00:32:04,VALID,1002.26,VALID,0,VALID,91.455,VALID,0,VALID,24.7548,VALID,357,VALID,0.267969,
2008-11-13, 00:33:04,VALID,1002.27,VALID,0,VALID,91.5542,VALID,0,VALID,24.7956,VALID,347,VALID,0.221484,
2008-11-13, 00:34:04,VALID,1002.22,VALID,0,VALID,91.5008,VALID,0,VALID,24.8151,VALID,337,VALID,0.414844,
2008-11-13, 00:35:04,VALID,1002.24,VALID,0,VALID,91.4626,VALID,0,VALID,24.7956,VALID,305,VALID,0.574609,
2008-11-13, 00:36:04,VALID,1002.25,VALID,0,VALID,91.3253,VALID,0,VALID,24.8151,VALID,334,VALID,0.535156,
2008-11-13, 00:37:04,VALID,1002.27,VALID,0,VALID,91.1117,VALID,0,VALID,24.8346,VALID,355,VALID,0.692187,
2008-11-13, 00:38:04,VALID,1002.26,VALID,0,VALID,91.0659,VALID,0,VALID,24.854,VALID,355,VALID,0.469531,
2008-11-13, 00:39:04,VALID,1002.25,VALID,0,VALID,90.982,VALID,0,VALID,24.8735,VALID,355,VALID,0.362891,
2008-11-13, 00:40:04,VALID,1002.28,VALID,0,VALID,90.9897,VALID,0,VALID,24.8327,VALID,355,VALID,0.0425781,
2008-11-13, 00:41:04,VALID,1002.25,VALID,0,VALID,90.921,VALID,0,VALID,24.8327,VALID,355,VALID,0.003125,
2008-11-13, 00:42:04,VALID,1002.23,VALID,0,VALID,90.9057,VALID,0,VALID,24.8327,VALID,355,VALID,0,
2008-11-13, 00:43:04,VALID,1002.21,VALID,0,VALID,90.8295,VALID,0,VALID,24.8522,VALID,354,VALID,0,
2008-11-13, 00:44:04,VALID,1002.18,VALID,0,VALID,90.7074,VALID,0,VALID,24.8716,VALID,354,VALID,0,
2008-11-13, 00:45:04,VALID,1002.16,VALID,0,VALID,90.6006,VALID,0,VALID,24.8911,VALID,354,VALID,0,
2008-11-13, 00:46:04,VALID,1002.15,VALID,0,VALID,90.4709,VALID,0,VALID,24.9106,VALID,354,VALID,0,
2008-11-13, 00:47:04,VALID,1002.18,VALID,0,VALID,90.3183,VALID,0,VALID,24.9495,VALID,354,VALID,0,
2008-11-13, 00:48:04,VALID,1002.19,VALID,0,VALID,90.3488,VALID,0,VALID,25.0079,VALID,353,VALID,0.967188,
2008-11-13, 00:49:04,VALID,1002.21,VALID,0,VALID,90.4633,VALID,0,VALID,25.0079,VALID,173,VALID,0.923828,
2008-11-13, 00:50:04,VALID,1002.19,VALID,0,VALID,90.6311,VALID,0,VALID,24.969,VALID,168,VALID,0.505859,
2008-11-13, 00:51:04,VALID,1002.21,VALID,0,VALID,90.776,VALID,0,VALID,24.93,VALID,168,VALID,0.547656,
2008-11-13, 00:52:04,VALID,1002.22,VALID,0,VALID,90.8676,VALID,0,VALID,24.8697,VALID,168,VALID,0.5,
2008-11-13, 00:53:04,VALID,1002.22,VALID,0,VALID,90.9668,VALID,0,VALID,24.8522,VALID,168,VALID,0.497266,
2008-11-13, 00:54:04,VALID,1002.18,VALID,0,VALID,91.0888,VALID,0,VALID,24.7743,VALID,168,VALID,0.260938,
2008-11-13, 00:55:04,VALID,1002.18,VALID,0,VALID,91.2033,VALID,0,VALID,24.7353,VALID,167,VALID,0.429297,
2008-11-13, 00:56:04,VALID,1002.16,VALID,0,VALID,91.3482,VALID,0,VALID,24.7159,VALID,167,VALID,0.170703,
2008-11-13, 00:57:04,VALID,1002.13,VALID,0,VALID,91.4779,VALID,0,VALID,24.6983,VALID,167,VALID,0.0683594,
2008-11-13, 00:58:04,VALID,1002.13,VALID,0,VALID,91.5847,VALID,0,VALID,24.6185,VALID,167,VALID,0,
2008-11-13, 00:59:04,VALID,1002.13,VALID,0,VALID,91.661,VALID,0,VALID,24.5796,VALID,167,VALID,0.0421875,
2008-11-13, 01:00:04,VALID,1002.11,VALID,0,VALID,91.7831,VALID,0,VALID,24.5601,VALID,167,VALID,0.382422,
2008-11-13, 01:01:04,VALID,1002.09,VALID,0,VALID,91.9967,VALID,0,VALID,24.4998,VALID,165,VALID,0.388672,
2008-11-13, 01:02:04,VALID,1002.11,VALID,0,VALID,92.195,VALID,0,VALID,24.4822,VALID,129,VALID,0.430469,
2008-11-13, 01:03:04,VALID,1002.1,VALID,0,VALID,92.34,VALID,0,VALID,24.4628,VALID,129,VALID,0.207813,
2008-11-13, 01:04:04,VALID,1002.06,VALID,0,VALID,92.4468,VALID,0,VALID,24.4238,VALID,129,VALID,0.0160156,
2008-11-13, 01:05:04,VALID,1002.04,VALID,0,VALID,92.6146,VALID,0,VALID,24.4043,VALID,129,VALID,0.0183594,
2008-11-13, 01:06:04,VALID,1002.02,VALID,0,VALID,92.6833,VALID,0,VALID,24.4257,VALID,129,VALID,0.235938,
2008-11-13, 01:07:04,VALID,1001.97,VALID,0,VALID,92.7367,VALID,0,VALID,24.4043,VALID,129,VALID,0.426172,
2008-11-13, 01:08:04,VALID,1001.93,VALID,0,VALID,92.7519,VALID,0,VALID,24.3849,VALID,129,VALID,0.149219,
2008-11-13, 01:09:04,VALID,1001.94,VALID,0,VALID,92.8206,VALID,0,VALID,24.3654,VALID,129,VALID,0.125391,
2008-11-13, 01:10:04,VALID,1001.85,VALID,0,VALID,92.874,VALID,0,VALID,24.3654,VALID,129,VALID,0.267578,
2008-11-13, 01:11:04,VALID,1001.82,VALID,0,VALID,93.0495,VALID,0,VALID,24.3265,VALID,343,VALID,0.620703,
2008-11-13, 01:12:04,VALID,1001.85,VALID,0,VALID,93.08,VALID,0,VALID,24.3265,VALID,354,VALID,0.348047,
2008-11-13, 01:13:04,VALID,1001.78,VALID,0,VALID,93.1791,VALID,0,VALID,24.3265,VALID,348,VALID,0.340625,
2008-11-13, 01:14:04,VALID,1001.79,VALID,0,VALID,93.2554,VALID,0,VALID,24.3265,VALID,355,VALID,0.535937,
2008-11-13, 01:15:04,VALID,1001.76,VALID,0,VALID,93.3394,VALID,0,VALID,24.3441,VALID,356,VALID,0.746484,
2008-11-13, 01:16:04,VALID,1001.74,VALID,0,VALID,93.3317,VALID,0,VALID,24.3441,VALID,355,VALID,0.535547,
2008-11-13, 01:17:04,VALID,1001.76,VALID,0,VALID,93.347,VALID,0,VALID,24.3654,VALID,3,VALID,0.895312,
2008-11-13, 01:18:04,VALID,1001.77,VALID,0,VALID,93.3546,VALID,0,VALID,24.3654,VALID,2,VALID,0.329297,
2008-11-13, 01:19:04,VALID,1001.78,VALID,0,VALID,93.3394,VALID,0,VALID,24.3654,VALID,7,VALID,0.620313,
2008-11-13, 01:20:04,VALID,1001.79,VALID,0,VALID,93.3012,VALID,0,VALID,24.3849,VALID,9,VALID,0.445703,
2008-11-13, 01:21:04,VALID,1001.78,VALID,0,VALID,93.2478,VALID,0,VALID,24.3654,VALID,9,VALID,0.155469,
2008-11-13, 01:22:04,VALID,1001.77,VALID,0,VALID,93.2325,VALID,0,VALID,24.3673,VALID,9,VALID,0,
2008-11-13, 01:23:04,VALID,1001.72,VALID,0,VALID,93.2707,VALID,0,VALID,24.3265,VALID,9,VALID,0.114453,
2008-11-13, 01:24:04,VALID,1001.7,VALID,0,VALID,93.3088,VALID,0,VALID,24.3265,VALID,111,VALID,0.748438,
2008-11-13, 01:25:04,VALID,1001.65,VALID,0,VALID,93.2859,VALID,0,VALID,24.3265,VALID,101,VALID,0.383203,
2008-11-13, 01:26:04,VALID,1001.62,VALID,0,VALID,93.3088,VALID,0,VALID,24.3265,VALID,101,VALID,0.149609,
2008-11-13, 01:27:04,VALID,1001.6,VALID,0,VALID,93.2859,VALID,0,VALID,24.3478,VALID,101,VALID,0.137891,
2008-11-13, 01:28:04,VALID,1001.59,VALID,0,VALID,93.2631,VALID,0,VALID,24.3052,VALID,101,VALID,0,
2008-11-13, 01:29:04,VALID,1001.53,VALID,0,VALID,93.2173,VALID,0,VALID,24.3265,VALID,101,VALID,0,
2008-11-13, 01:30:04,VALID,1001.55,VALID,0,VALID,93.202,VALID,0,VALID,24.2875,VALID,101,VALID,0.0273438,
2008-11-13, 01:31:04,VALID,1001.52,VALID,0,VALID,93.2402,VALID,0,VALID,24.307,VALID,101,VALID,0,
2008-11-13, 01:32:04,VALID,1001.53,VALID,0,VALID,93.2859,VALID,0,VALID,24.3283,VALID,101,VALID,0,
2008-11-13, 01:33:04,VALID,1001.52,VALID,0,VALID,93.3394,VALID,0,VALID,24.3265,VALID,101,VALID,0.00507812,
2008-11-13, 01:34:04,VALID,1001.52,VALID,0,VALID,93.3088,VALID,0,VALID,24.3265,VALID,75,VALID,0.273828,
2008-11-13, 01:35:04,VALID,1001.52,VALID,0,VALID,93.2783,VALID,0,VALID,24.307,VALID,75,VALID,0.371094,
2008-11-13, 01:36:04,VALID,1001.54,VALID,0,VALID,93.2707,VALID,0,VALID,24.307,VALID,74,VALID,0.326953,
2008-11-13, 01:37:04,VALID,1001.51,VALID,0,VALID,93.3088,VALID,0,VALID,24.2875,VALID,74,VALID,0.185156,
2008-11-13, 01:38:04,VALID,1001.51,VALID,0,VALID,93.4004,VALID,0,VALID,24.2875,VALID,74,VALID,0.358984,
2008-11-13, 01:39:04,VALID,1001.5,VALID,0,VALID,93.469,VALID,0,VALID,24.2681,VALID,74,VALID,0.399609,
2008-11-13, 01:40:04,VALID,1001.48,VALID,0,VALID,93.4614,VALID,0,VALID,24.2504,VALID,74,VALID,0.329688,
2008-11-13, 01:41:04,VALID,1001.49,VALID,0,VALID,93.4996,VALID,0,VALID,24.2291,VALID,74,VALID,0.273047,
2008-11-13, 01:42:04,VALID,1001.49,VALID,0,VALID,93.5453,VALID,0,VALID,24.2291,VALID,74,VALID,0.185156,
2008-11-13, 01:43:04,VALID,1001.5,VALID,0,VALID,93.4767,VALID,0,VALID,24.2504,VALID,74,VALID,0.249609,
2008-11-13, 01:44:04,VALID,1001.51,VALID,0,VALID,93.4919,VALID,0,VALID,24.2097,VALID,74,VALID,0.185156,
2008-11-13, 01:45:04,VALID,1001.48,VALID,0,VALID,93.5224,VALID,0,VALID,24.2097,VALID,74,VALID,0.219141,
2008-11-13, 01:46:04,VALID,1001.5,VALID,0,VALID,93.5224,VALID,0,VALID,24.1902,VALID,74,VALID,0.363672,
2008-11-13, 01:47:04,VALID,1001.49,VALID,0,VALID,93.553,VALID,0,VALID,24.192,VALID,74,VALID,0.430078,
2008-11-13, 01:48:04,VALID,1001.48,VALID,0,VALID,93.6292,VALID,0,VALID,24.1707,VALID,74,VALID,0.328125,
2008-11-13, 01:49:04,VALID,1001.48,VALID,0,VALID,93.6979,VALID,0,VALID,24.1707,VALID,74,VALID,0.345313,
2008-11-13, 01:50:04,VALID,1001.43,VALID,0,VALID,93.7361,VALID,0,VALID,24.1726,VALID,74,VALID,0.389844,
2008-11-13, 01:51:04,VALID,1001.42,VALID,0,VALID,93.7361,VALID,0,VALID,24.1513,VALID,74,VALID,0.329297,
2008-11-13, 01:52:04,VALID,1001.43,VALID,0,VALID,93.8123,VALID,0,VALID,24.1318,VALID,74,VALID,0.385938,
2008-11-13, 01:53:04,VALID,1001.39,VALID,0,VALID,93.8963,VALID,0,VALID,24.1513,VALID,74,VALID,0.333203,
2008-11-13, 01:54:04,VALID,1001.4,VALID,0,VALID,93.942,VALID,0,VALID,24.1707,VALID,74,VALID,0.467578,
2008-11-13, 01:55:04,VALID,1001.36,VALID,0,VALID,93.942,VALID,0,VALID,24.1707,VALID,74,VALID,0.133984,
2008-11-13, 01:56:04,VALID,1001.35,VALID,0,VALID,93.8657,VALID,0,VALID,24.1513,VALID,74,VALID,0.0964844,
2008-11-13, 01:57:04,VALID,1001.32,VALID,0,VALID,93.7971,VALID,0,VALID,24.1318,VALID,74,VALID,0.0164062,
2008-11-13, 01:58:04,VALID,1001.31,VALID,0,VALID,93.7437,VALID,0,VALID,24.1123,VALID,74,VALID,0.357031,
2008-11-13, 01:59:04,VALID,1001.29,VALID,0,VALID,93.7818,VALID,0.100563,VALID,24.0734,VALID,75,VALID,0.436719,
2008-11-13, 02:00:04,VALID,1001.28,VALID,0,VALID,93.8581,VALID,0,VALID,24.0734,VALID,75,VALID,0.318359,
2008-11-13, 02:01:04,VALID,1001.29,VALID,0,VALID,93.9497,VALID,0,VALID,24.0345,VALID,75,VALID,0.430859,
2008-11-13, 02:02:04,VALID,1001.27,VALID,0,VALID,94.0641,VALID,0,VALID,24.0539,VALID,78,VALID,0.461328,
2008-11-13, 02:03:04,VALID,1001.25,VALID,0,VALID,94.1328,VALID,0,VALID,24.0345,VALID,83,VALID,0.36875,
2008-11-13, 02:04:04,VALID,1001.26,VALID,0,VALID,94.1328,VALID,0,VALID,24.0363,VALID,83,VALID,0.504687,
2008-11-13, 02:05:04,VALID,1001.26,VALID,0,VALID,94.2014,VALID,0,VALID,24.015,VALID,83,VALID,0.104687,
2008-11-13, 02:06:04,VALID,1001.22,VALID,0,VALID,94.1938,VALID,0,VALID,23.9973,VALID,83,VALID,0,
2008-11-13, 02:07:04,VALID,1001.22,VALID,0,VALID,94.1404,VALID,0,VALID,23.9973,VALID,83,VALID,0,
2008-11-13, 02:08:04,VALID,1001.18,VALID,0,VALID,94.0946,VALID,0,VALID,23.9584,VALID,83,VALID,0,
2008-11-13, 02:09:04,VALID,1001.18,VALID,0,VALID,94.1404,VALID,0,VALID,23.8982,VALID,83,VALID,0.0523437,
2008-11-13, 02:10:04,VALID,1001.17,VALID,0,VALID,94.1785,VALID,0,VALID,23.8982,VALID,83,VALID,0,
2008-11-13, 02:11:04,VALID,1001.17,VALID,0,VALID,94.1785,VALID,0,VALID,23.8787,VALID,83,VALID,0,
2008-11-13, 02:12:04,VALID,1001.16,VALID,0,VALID,94.2472,VALID,0,VALID,23.9,VALID,83,VALID,0,
2008-11-13, 02:13:04,VALID,1001.18,VALID,0,VALID,94.3006,VALID,0,VALID,23.8593,VALID,83,VALID,0,
2008-11-13, 02:14:04,VALID,1001.18,VALID,0,VALID,94.3082,VALID,0,VALID,23.8398,VALID,83,VALID,0,
2008-11-13, 02:15:04,VALID,1001.18,VALID,0,VALID,94.3006,VALID,0,VALID,23.8398,VALID,83,VALID,0,
2008-11-13, 02:16:04,VALID,1001.18,VALID,0,VALID,94.2853,VALID,0,VALID,23.7991,VALID,83,VALID,0,
2008-11-13, 02:17:04,VALID,1001.18,VALID,0,VALID,94.4074,VALID,0,VALID,23.8398,VALID,83,VALID,0,
2008-11-13, 02:18:04,VALID,1001.19,VALID,0,VALID,94.4913,VALID,0,VALID,23.8398,VALID,83,VALID,0,
2008-11-13, 02:19:04,VALID,1001.19,VALID,0,VALID,94.4684,VALID,0,VALID,23.8593,VALID,83,VALID,0,
2008-11-13, 02:20:04,VALID,1001.25,VALID,0,VALID,94.5066,VALID,0,VALID,23.8593,VALID,83,VALID,0.0148437,
2008-11-13, 02:21:04,VALID,1001.28,VALID,0,VALID,94.5295,VALID,0,VALID,23.8787,VALID,83,VALID,0.201953,
2008-11-13, 02:22:04,VALID,1001.27,VALID,0,VALID,94.5371,VALID,0,VALID,23.8787,VALID,83,VALID,0.0257812,
2008-11-13, 02:23:04,VALID,1001.32,VALID,0,VALID,94.5523,VALID,0,VALID,23.9195,VALID,83,VALID,0.0804688,
2008-11-13, 02:24:04,VALID,1001.33,VALID,0,VALID,94.4913,VALID,0,VALID,23.9,VALID,83,VALID,0.272266,
2008-11-13, 02:25:04,VALID,1001.34,VALID,0,VALID,94.4074,VALID,0,VALID,23.8398,VALID,38,VALID,0.708594,
2008-11-13, 02:26:04,VALID,1001.35,VALID,0,VALID,94.3082,VALID,0,VALID,23.8203,VALID,23,VALID,0.751172,
2008-11-13, 02:27:04,VALID,1001.31,VALID,0,VALID,94.4379,VALID,0,VALID,23.8221,VALID,8,VALID,0.797266,
2008-11-13, 02:28:04,VALID,1001.33,VALID,0,VALID,94.5371,VALID,0,VALID,23.7814,VALID,5,VALID,0.666797,
2008-11-13, 02:29:04,VALID,1001.29,VALID,0,VALID,94.5829,VALID,0,VALID,23.7814,VALID,5,VALID,0.36875,
2008-11-13, 02:30:04,VALID,1001.3,VALID,0,VALID,94.5981,VALID,0,VALID,23.8027,VALID,5,VALID,0.177344,
2008-11-13, 02:31:04,VALID,1001.29,VALID,0,VALID,94.6439,VALID,0,VALID,23.7814,VALID,5,VALID,0.0320312,
2008-11-13, 02:32:04,VALID,1001.27,VALID,0,VALID,94.682,VALID,0,VALID,23.8009,VALID,5,VALID,0.173438,
2008-11-13, 02:33:04,VALID,1001.3,VALID,0,VALID,94.7507,VALID,0,VALID,23.8009,VALID,5,VALID,0.293359,
2008-11-13, 02:34:04,VALID,1001.29,VALID,0,VALID,94.7812,VALID,0,VALID,23.8203,VALID,5,VALID,0.362891,
2008-11-13, 02:35:04,VALID,1001.3,VALID,0,VALID,94.7736,VALID,0,VALID,23.8203,VALID,5,VALID,0.184375,
2008-11-13, 02:36:04,VALID,1001.27,VALID,0,VALID,94.7583,VALID,0,VALID,23.8221,VALID,5,VALID,0.0679687,
2008-11-13, 02:37:04,VALID,1001.27,VALID,0,VALID,94.7507,VALID,0,VALID,23.7814,VALID,5,VALID,0,
2008-11-13, 02:38:04,VALID,1001.28,VALID,0,VALID,94.7507,VALID,0,VALID,23.7814,VALID,5,VALID,0.0601562,
2008-11-13, 02:39:04,VALID,1001.25,VALID,0,VALID,94.7583,VALID,0,VALID,23.7814,VALID,5,VALID,0.433984,
2008-11-13, 02:40:04,VALID,1001.25,VALID,0,VALID,94.766,VALID,0,VALID,23.7619,VALID,5,VALID,0.397656,
2008-11-13, 02:41:04,VALID,1001.23,VALID,0,VALID,94.8499,VALID,0,VALID,23.7814,VALID,5,VALID,0.604297,
2008-11-13, 02:42:04,VALID,1001.25,VALID,0,VALID,94.888,VALID,0,VALID,23.8009,VALID,5,VALID,0.388281,
2008-11-13, 02:43:04,VALID,1001.29,VALID,0,VALID,94.9033,VALID,0,VALID,23.8009,VALID,5,VALID,0.342578,
2008-11-13, 02:44:04,VALID,1001.29,VALID,0,VALID,94.8804,VALID,0,VALID,23.8027,VALID,5,VALID,0.171875,
2008-11-13, 02:45:04,VALID,1001.31,VALID,0,VALID,94.8422,VALID,0,VALID,23.7814,VALID,5,VALID,0.303125,
2008-11-13, 02:46:04,VALID,1001.31,VALID,0,VALID,94.8728,VALID,0,VALID,23.7619,VALID,5,VALID,0.123828,
2008-11-13, 02:47:04,VALID,1001.31,VALID,0,VALID,94.8575,VALID,0,VALID,23.7619,VALID,5,VALID,0.186719,
2008-11-13, 02:48:04,VALID,1001.3,VALID,0,VALID,94.888,VALID,0,VALID,23.7832,VALID,5,VALID,0.244531,
2008-11-13, 02:49:04,VALID,1001.31,VALID,0,VALID,94.9414,VALID,0,VALID,23.7814,VALID,5,VALID,0.16875,
2008-11-13, 02:50:04,VALID,1001.32,VALID,0,VALID,94.949,VALID,0,VALID,23.7601,VALID,5,VALID,0.0183594,
2008-11-13, 02:51:04,VALID,1001.28,VALID,0,VALID,94.9796,VALID,0,VALID,23.8009,VALID,5,VALID,0,
2008-11-13, 02:52:04,VALID,1001.26,VALID,0,VALID,94.9948,VALID,0,VALID,23.8398,VALID,5,VALID,0.229687,
2008-11-13, 02:53:04,VALID,1001.27,VALID,0,VALID,95.0406,VALID,0,VALID,23.8805,VALID,360,VALID,0.235547,
2008-11-13, 02:54:04,VALID,1001.24,VALID,0,VALID,95.0101,VALID,0,VALID,23.8787,VALID,360,VALID,0,
2008-11-13, 02:55:04,VALID,1001.23,VALID,0,VALID,94.9948,VALID,0,VALID,23.8787,VALID,360,VALID,0,
2008-11-13, 02:56:04,VALID,1001.24,VALID,0,VALID,94.9338,VALID,0,VALID,23.8787,VALID,360,VALID,0.00664063,
2008-11-13, 02:57:04,VALID,1001.22,VALID,0,VALID,94.9185,VALID,0,VALID,23.8787,VALID,360,VALID,0.272266,
2008-11-13, 02:58:04,VALID,1001.17,VALID,0,VALID,94.827,VALID,0,VALID,23.8593,VALID,360,VALID,0.499219,
2008-11-13, 02:59:04,VALID,1001.18,VALID,0,VALID,94.766,VALID,0,VALID,23.8009,VALID,360,VALID,0.516797,
2008-11-13, 03:00:04,VALID,1001.18,VALID,0,VALID,94.6973,VALID,0,VALID,23.7619,VALID,360,VALID,0.433984,
2008-11-13, 03:01:04,VALID,1001.21,VALID,0,VALID,94.7736,VALID,0,VALID,23.7619,VALID,360,VALID,0.541406,
2008-11-13, 03:02:04,VALID,1001.21,VALID,0,VALID,94.8194,VALID,0,VALID,23.7212,VALID,360,VALID,0.346094,
2008-11-13, 03:03:04,VALID,1001.21,VALID,0,VALID,94.9719,VALID,0,VALID,23.7832,VALID,360,VALID,0.410937,
2008-11-13, 03:04:04,VALID,1001.2,VALID,0,VALID,94.9643,VALID,0,VALID,23.7619,VALID,359,VALID,0.417578,
2008-11-13, 03:05:04,VALID,1001.23,VALID,0,VALID,94.9185,VALID,0,VALID,23.7619,VALID,359,VALID,0,
2008-11-13, 03:06:04,VALID,1001.22,VALID,0,VALID,94.9567,VALID,0,VALID,23.7619,VALID,359,VALID,0,
2008-11-13, 03:07:04,VALID,1001.22,VALID,0,VALID,94.9643,VALID,0,VALID,23.7637,VALID,359,VALID,0,
2008-11-13, 03:08:04,VALID,1001.24,VALID,0,VALID,94.9567,VALID,0,VALID,23.7425,VALID,359,VALID,0.100781,
2008-11-13, 03:09:04,VALID,1001.25,VALID,0,VALID,95.033,VALID,0,VALID,23.7814,VALID,359,VALID,0,
2008-11-13, 03:10:04,VALID,1001.28,VALID,0,VALID,95.0864,VALID,0,VALID,23.7814,VALID,359,VALID,0,
2008-11-13, 03:11:04,VALID,1001.28,VALID,0,VALID,95.0787,VALID,0,VALID,23.8203,VALID,359,VALID,0,
2008-11-13, 03:12:04,VALID,1001.3,VALID,0,VALID,95.0864,VALID,0,VALID,23.8416,VALID,359,VALID,0.149219,
2008-11-13, 03:13:04,VALID,1001.3,VALID,0,VALID,95.0711,VALID,0,VALID,23.8398,VALID,359,VALID,0.261328,
2008-11-13, 03:14:04,VALID,1001.32,VALID,0,VALID,95.0024,VALID,0,VALID,23.8203,VALID,359,VALID,0.178516,
2008-11-13, 03:15:04,VALID,1001.33,VALID,0,VALID,94.9719,VALID,0,VALID,23.8009,VALID,359,VALID,0,
2008-11-13, 03:16:04,VALID,1001.34,VALID,0,VALID,94.9185,VALID,0,VALID,23.7814,VALID,359,VALID,0.2625,
2008-11-13, 03:17:04,VALID,1001.32,VALID,0,VALID,94.8956,VALID,0,VALID,23.7619,VALID,359,VALID,0.36875,
2008-11-13, 03:18:04,VALID,1001.35,VALID,0,VALID,94.9185,VALID,0,VALID,23.7619,VALID,359,VALID,0.298438,
2008-11-13, 03:19:04,VALID,1001.36,VALID,0,VALID,94.9719,VALID,0,VALID,23.7425,VALID,359,VALID,0.403906,
2008-11-13, 03:20:04,VALID,1001.37,VALID,0,VALID,94.9719,VALID,0,VALID,23.7619,VALID,359,VALID,0.290234,
2008-11-13, 03:21:04,VALID,1001.39,VALID,0,VALID,94.9643,VALID,0,VALID,23.7017,VALID,359,VALID,0,
2008-11-13, 03:22:04,VALID,1001.42,VALID,0,VALID,94.949,VALID,0,VALID,23.723,VALID,359,VALID,0,
2008-11-13, 03:23:04,VALID,1001.43,VALID,0,VALID,94.9719,VALID,0,VALID,23.6823,VALID,359,VALID,0,
2008-11-13, 03:24:04,VALID,1001.46,VALID,0,VALID,95.0177,VALID,0,VALID,23.7035,VALID,359,VALID,0,
2008-11-13, 03:25:04,VALID,1001.49,VALID,0,VALID,95.0711,VALID,0,VALID,23.723,VALID,359,VALID,0,
2008-11-13, 03:26:04,VALID,1001.48,VALID,0,VALID,95.1016,VALID,0,VALID,23.723,VALID,359,VALID,0.215625,
2008-11-13, 03:27:04,VALID,1001.5,VALID,0,VALID,95.0787,VALID,0.100563,VALID,23.723,VALID,359,VALID,0.301953,
2008-11-13, 03:28:04,VALID,1001.48,VALID,0,VALID,95.1627,VALID,0.100563,VALID,23.7212,VALID,359,VALID,0.435937,
2008-11-13, 03:29:04,VALID,1001.47,VALID,0,VALID,95.1627,VALID,0,VALID,23.7425,VALID,359,VALID,0.384375,
2008-11-13, 03:30:04,VALID,1001.44,VALID,0,VALID,95.2084,VALID,0,VALID,23.7619,VALID,359,VALID,0.226953,
2008-11-13, 03:31:04,VALID,1001.45,VALID,0,VALID,95.2008,VALID,0,VALID,23.7619,VALID,359,VALID,0.189844,
2008-11-13, 03:32:04,VALID,1001.42,VALID,0,VALID,95.1245,VALID,0,VALID,23.7407,VALID,359,VALID,0.196875,
2008-11-13, 03:33:04,VALID,1001.44,VALID,0,VALID,95.1016,VALID,0,VALID,23.7425,VALID,359,VALID,0.111328,
2008-11-13, 03:34:04,VALID,1001.43,VALID,0,VALID,95.0558,VALID,0,VALID,23.7017,VALID,359,VALID,0.151953,
2008-11-13, 03:35:04,VALID,1001.4,VALID,0,VALID,95.0177,VALID,0,VALID,23.6841,VALID,359,VALID,0.192578,
2008-11-13, 03:36:04,VALID,1001.42,VALID,0,VALID,95.0406,VALID,0.100563,VALID,23.6841,VALID,359,VALID,0.186719,
2008-11-13, 03:37:04,VALID,1001.4,VALID,0,VALID,95.0711,VALID,0,VALID,23.6841,VALID,359,VALID,0.114844,
2008-11-13, 03:38:04,VALID,1001.39,VALID,0,VALID,95.1093,VALID,0,VALID,23.6646,VALID,359,VALID,0.104297,
2008-11-13, 03:39:04,VALID,1001.39,VALID,0,VALID,95.1703,VALID,0,VALID,23.6841,VALID,359,VALID,0.395312,
2008-11-13, 03:40:04,VALID,1001.39,VALID,0,VALID,95.1474,VALID,0,VALID,23.7035,VALID,359,VALID,0.379687,
2008-11-13, 03:41:04,VALID,1001.39,VALID,0,VALID,95.1093,VALID,0,VALID,23.6646,VALID,359,VALID,0.219922,
2008-11-13, 03:42:04,VALID,1001.39,VALID,0,VALID,95.094,VALID,0,VALID,23.6452,VALID,359,VALID,0.0234375,
2008-11-13, 03:43:04,VALID,1001.38,VALID,0,VALID,95.1321,VALID,0,VALID,23.6452,VALID,359,VALID,0,
2008-11-13, 03:44:04,VALID,1001.4,VALID,0,VALID,95.155,VALID,0,VALID,23.6664,VALID,359,VALID,0,
2008-11-13, 03:45:04,VALID,1001.39,VALID,0,VALID,95.2237,VALID,0,VALID,23.6859,VALID,359,VALID,0,
2008-11-13, 03:46:04,VALID,1001.41,VALID,0,VALID,95.2542,VALID,0,VALID,23.7035,VALID,359,VALID,0,
2008-11-13, 03:47:04,VALID,1001.44,VALID,0,VALID,95.2618,VALID,0,VALID,23.7035,VALID,359,VALID,0,
2008-11-13, 03:48:04,VALID,1001.48,VALID,0,VALID,95.2618,VALID,0,VALID,23.7035,VALID,359,VALID,0,